Weather in Belyakovskoe

Russia / Sverdlovsk Oblast     56°59′22″N   64°11′32″E
temp.,
°C
wind,
m/s
gust,
m/s
humid.,
%
clouds,
%
prec.,
mm/h
press.,
hPa
HPBL,
m
22 january, sat
sat2223:00−13sw289655 0.0 1025139
02:00−15sw279684 0.0 1026117
05:00−15sw2796100 0.0 1027111
08:00−16sw269699 0.0 102895
11:00−12sw38926 0.0 1029173
14:00−8sw368679 0.0 1030253
17:00−13ssw249739 0.0 103144
20:00−15sw269457 0.0 103295
23 january, sun
sun2323:00−18sw119741 0.0 103318
02:00−19sw129695 0.0 103425
05:00−20ssw119561 0.0 103519
08:00−21sw11945 0.0 103623
11:00−14sw248035 0.0 103695
14:00−9sw24785 0.0 1036211
17:00−15ssw229433 0.0 103822
20:00−15sw2589100 0.0 103881
24 january, mon
mon2423:00−16sw2590100 0.0 103973
02:00−14sw2687100 0.0 1039117
05:00−14ssw2688100 0.0 1038110
08:00−13ssw2685100 0.0 1038132
11:00−10sw2781100 0.0 1037192
14:00−8sw3681100 0.0 1036264
17:00−8ssw2695100 0.4 1035204
20:00−6wsw3996100 0.9 1033337
25 january, tue
tue2523:00−8w379662 0.9 1033168
02:00−13w279756 0.0 1032128
05:00−16w279748 0.0 1032116
08:00−17w269837 0.0 103197
11:00−12w27935 0.0 1030157
14:00−7w358687 0.0 1029414
17:00−9wsw239799 0.1 102856
20:00−11wsw119980 0.1 102816
26 january, wed
wed2623:00−10sw119883 0.2 102814
02:00−9wsw1298100 0.2 102844
05:00−8w2495100 0.2 1028158
08:00−10wsw1297100 0.0 102840
11:00−9w2492100 0.0 1028160
14:00−8wsw1383100 0.0 1028209
17:00−12ssw119695 0.0 102910
20:00−16ssw249780 0.0 102942